Vancouver, British Columbia

1:14 AM PDT on July 26, 2017 (GMT -0700)
Vancouver International Airport

Weather History for CYVR - December, 2012

Change the Weather History Date:

Saturday, December 8, 2012

  Actual Average Record
Temperature  
Mean Temperature 36 °F -  
Max Temperature 41 °F 43 °F 56 °F (2015)
Min Temperature 31 °F 33 °F 16 °F (2013)
Degree Days  
Heating Degree Days 29    
Moisture  
Dew Point 30 °F    
Average Humidity 79    
Maximum Humidity 93    
Minimum Humidity 62    
Precipitation  
Precipitation 0.00 in 0.22 in - ()
Sea Level Pressure  
Sea Level Pressure 30.25 in    
Wind  
Wind Speed 4 mph ()    
Max Wind Speed 8 mph    
Max Gust Speed -    
Visibility 18.3 miles    
Events      
Averages and records for this station are not official NWS values.
T = Trace of Precipitation, MM = Missing Value Source: Averaged Metar Reports

Daily Weather History Graph

Daily Weather History Graph

Search for Another Location

Airport or City:

Trip Planner

Search our weather history database for the weather conditions in past years. The results will help you decide how hot, cold, wet, or windy it might be!

Date:

Astronomy

Dec. 08, 2012 Rise Set
Actual Time 7:55 AM PST 4:14 PM PST
Civil Twilight 7:17 AM PST 4:51 PM PST
Nautical Twilight 6:37 AM PST 5:32 PM PST
Astronomical Twilight 5:58 AM PST 6:10 PM PST
Moon 2:03 AM PST (12/8) 1:08 PM PST (12/8)
Length of Visible Light 9h 34m
Length of Day
8h 19m
Waning Crescent, 27% of the Moon is Illuminated
Dec 8
Waning Crescent
Dec 13
New
Dec 19
First Quarter
Dec 28
Full
Jan 4
Last Quarter

Hourly Weather History & Observations

Time (PST) Temp. Windchill Dew Point Humidity Pressure Visibility Wind Dir Wind Speed Gust Speed Precip Events Conditions
12:00 AM 37.4 °F 31.4 °F 30.2 °F 75% 30.11 in 15.0 mi NW 8.1 mph - N/A   Mostly Cloudy
1:00 AM 35.6 °F 31.7 °F 30.2 °F 81% 30.12 in 15.0 mi NE 4.6 mph - N/A   Mostly Cloudy
2:00 AM 32.0 °F 27.5 °F 28.4 °F 87% 30.14 in 15.0 mi East 4.6 mph - N/A   Mostly Cloudy
3:00 AM 33.8 °F 29.6 °F 30.2 °F 87% 30.14 in 15.0 mi East 4.6 mph - N/A   Mostly Cloudy
4:00 AM 32 °F - 29 °F 83% 30.15 in 15 mi East 5.8 mph - -   Partly Cloudy
4:00 AM 32.0 °F 25.6 °F 28.4 °F 87% 30.15 in 15.0 mi East 6.9 mph - N/A   Mostly Cloudy
5:00 AM 33.8 °F 29.6 °F 30.2 °F 87% 30.16 in 15.0 mi East 4.6 mph - N/A   Mostly Cloudy
6:00 AM 33.8 °F - 30.2 °F 87% 30.17 in 15.0 mi Calm Calm - N/A   Mostly Cloudy
7:00 AM 32.0 °F 28.7 °F 28.4 °F 87% 30.19 in 15.0 mi East 3.5 mph - N/A   Mostly Cloudy
8:00 AM 32.0 °F - 30.2 °F 93% 30.21 in 20.0 mi Calm Calm - N/A   Mostly Cloudy
9:00 AM 33.8 °F - 30.2 °F 87% 30.22 in 20.0 mi Calm Calm - N/A   Mostly Cloudy
10:00 AM 35 °F - 31 °F 78% 30.25 in 19 mi Calm Calm - -   Scattered Clouds
10:00 AM 35.6 °F - 30.2 °F 81% 30.25 in 20.0 mi Calm Calm - N/A   Mostly Cloudy
11:00 AM 39.2 °F 37.0 °F 32.0 °F 75% 30.26 in 20.0 mi East 3.5 mph - N/A   Mostly Cloudy
12:00 PM 39.2 °F 35.9 °F 32.0 °F 75% 30.26 in 20.0 mi East 4.6 mph - N/A   Mostly Cloudy
1:00 PM 41.0 °F 39.0 °F 32.0 °F 70% 30.26 in 20.0 mi South 3.5 mph - N/A   Mostly Cloudy
2:00 PM 41.0 °F 39.0 °F 30.2 °F 65% 30.27 in 20.0 mi WSW 3.5 mph - N/A   Mostly Cloudy
3:00 PM 39.2 °F - 30.2 °F 70% 30.29 in 20.0 mi Calm Calm - N/A   Mostly Cloudy
4:00 PM 38 °F - 29 °F 62% 30.29 in 19 mi East 3.5 mph - -   Scattered Clouds
4:00 PM 39.2 °F 37.0 °F 30.2 °F 70% 30.29 in 20.0 mi East 3.5 mph - N/A   Mostly Cloudy
5:00 PM 39.2 °F - 30.2 °F 70% 30.30 in 20.0 mi Calm Calm - N/A   Mostly Cloudy
6:00 PM 37.4 °F 33.8 °F 30.2 °F 75% 30.32 in 20.0 mi East 4.6 mph - N/A   Mostly Cloudy
7:00 PM 37.4 °F 33.8 °F 30.2 °F 75% 30.33 in 20.0 mi East 4.6 mph - N/A   Mostly Cloudy
8:00 PM 37.4 °F 33.8 °F 30.2 °F 75% 30.34 in 20.0 mi East 4.6 mph - N/A   Mostly Cloudy
9:00 PM 35.6 °F 32.8 °F 30.2 °F 81% 30.35 in 20.0 mi East 3.5 mph - N/A   Overcast
10:00 PM 37 °F - 32 °F 74% 30.35 in 19 mi ESE 3.5 mph - -   Overcast
10:00 PM 37.4 °F 34.9 °F 32.0 °F 81% 30.35 in 20.0 mi ESE 3.5 mph - N/A   Overcast
11:00 PM 35.6 °F 31.7 °F 32.0 °F 87% 30.36 in 20.0 mi East 4.6 mph - N/A   Overcast